Location: New Plymouth
(39.0670°S, 174.0830°E)
Time: 05:00:55
(UTC+13:00)

Mayak - Pass Details

Date: 24 January 2019
Orbit: 582 x 604 km, 97.6° (Epoch: 19 February)

Event Time Altitude Azimuth Distance (km) Brightness Sun altitude
Exits shadow 22:46:21 22° 107° (ESE) 1,315 0.3 -19.5°
Maximum altitude 22:46:35 22° 112° (ESE) 1,311 0.3 -19.6°
Drops below altitude 10° 22:49:51 10° 162° (SSE) 1,945 1.8 -20.0°
Sets 22:52:24 0° 177° (S) 2,860 3.0 -20.3°
